Time,TemperatureF,DewpointF,PressureIn,WindDirection,WindDirectionDegrees,WindSpeedMPH,WindSpeedGustMPH,Humidity,HourlyPrecipIn,Conditions,Clouds,dailyrainin,SoftwareType,DateUTC
2013-01-17 00:02:00,11.0,9.0,-100.00,East,84,4.0,4.0,92,-99.99,,,-99.99,,2013-01-17 07:02:00,
2013-01-17 00:12:00,11.0,9.0,-100.00,East,84,4.0,4.0,92,-99.99,,,-99.99,,2013-01-17 07:12:00,
2013-01-17 00:22:00,10.0,8.0,-100.00,ENE,77,3.0,5.0,91,-99.99,,,-99.99,,2013-01-17 07:22:00,
2013-01-17 00:32:00,10.0,8.0,-100.00,ENE,77,3.0,5.0,91,-99.99,,,-99.99,,2013-01-17 07:32:00,
2013-01-17 00:42:00,10.0,8.0,-100.00,ENE,77,3.0,5.0,91,-99.99,,,-99.99,,2013-01-17 07:42:00,
2013-01-17 00:52:00,10.0,8.0,-100.00,ENE,65,3.0,3.0,91,-99.99,,,-99.99,,2013-01-17 07:52:00,
2013-01-17 01:02:00,10.0,8.0,-100.00,ENE,65,3.0,3.0,91,-99.99,,,-99.99,,2013-01-17 08:02:00,
2013-01-17 01:12:00,10.0,8.0,-100.00,East,86,3.0,3.0,92,-99.99,,,-99.99,,2013-01-17 08:12:00,
2013-01-17 01:22:00,9.0,8.0,-100.00,East,80,3.0,3.0,91,-99.99,,,-99.99,,2013-01-17 08:22:00,
2013-01-17 01:32:00,11.0,10.0,-100.00,East,80,2.0,3.0,93,-99.99,,,-99.99,,2013-01-17 08:32:00,
2013-01-17 01:43:00,11.0,9.0,-100.00,ENE,57,3.0,4.0,92,-99.99,,,-99.99,,2013-01-17 08:43:00,
2013-01-17 01:52:00,11.0,9.0,-100.00,ENE,57,3.0,4.0,92,-99.99,,,-99.99,,2013-01-17 08:52:00,
2013-01-17 02:02:00,12.0,10.0,-100.00,ENE,77,4.0,4.0,93,-99.99,,,-99.99,,2013-01-17 09:02:00,
2013-01-17 02:11:00,10.0,9.0,-100.00,NE,55,2.0,3.0,92,-99.99,,,-99.99,,2013-01-17 09:11:00,
2013-01-17 02:22:00,12.0,10.0,-100.00,ENE,65,2.0,3.0,93,-99.99,,,-99.99,,2013-01-17 09:22:00,
2013-01-17 02:32:00,12.0,10.0,-100.00,ENE,65,2.0,3.0,93,-99.99,,,-99.99,,2013-01-17 09:32:00,
2013-01-17 02:42:00,10.0,9.0,-100.00,East,99,3.0,4.0,91,-99.99,,,-99.99,,2013-01-17 09:42:00,
2013-01-17 02:52:00,12.0,10.0,-100.00,East,90,4.0,4.0,92,-99.99,,,-99.99,,2013-01-17 09:52:00,
2013-01-17 03:02:00,12.0,10.0,-100.00,East,90,4.0,4.0,92,-99.99,,,-99.99,,2013-01-17 10:02:00,
2013-01-17 03:11:00,13.0,11.0,-100.00,East,99,5.0,5.0,93,-99.99,,,-99.99,,2013-01-17 10:11:00,
2013-01-17 03:22:00,12.0,11.0,-100.00,NE,51,3.0,4.0,93,-99.99,,,-99.99,,2013-01-17 10:22:00,
2013-01-17 03:32:00,12.0,11.0,-100.00,NE,51,3.0,4.0,93,-99.99,,,-99.99,,2013-01-17 10:32:00,
2013-01-17 03:42:00,12.0,10.0,-100.00,East,79,4.0,4.0,92,-99.99,,,-99.99,,2013-01-17 10:42:00,
2013-01-17 03:52:00,12.0,10.0,-100.00,East,79,4.0,4.0,92,-99.99,,,-99.99,,2013-01-17 10:52:00,
2013-01-17 04:02:00,12.0,10.0,-100.00,NE,42,2.0,3.0,93,-99.99,,,-99.99,,2013-01-17 11:02:00,
2013-01-17 04:11:00,13.0,11.0,-100.00,ENE,75,3.0,3.0,93,-99.99,,,-99.99,,2013-01-17 11:11:00,
2013-01-17 04:22:00,13.0,11.0,-100.00,ENE,75,3.0,3.0,93,-99.99,,,-99.99,,2013-01-17 11:22:00,
2013-01-17 04:32:00,12.0,10.0,-100.00,ENE,64,3.0,4.0,92,-99.99,,,-99.99,,2013-01-17 11:32:00,
2013-01-17 04:42:00,11.0,9.0,-100.00,SW,222,1.0,2.0,91,-99.99,,,-99.99,,2013-01-17 11:42:00,
2013-01-17 04:52:00,10.0,8.0,-100.00,WSW,257,3.0,3.0,91,-99.99,,,-99.99,,2013-01-17 11:52:00,
2013-01-17 05:02:00,10.0,8.0,-100.00,WSW,257,3.0,3.0,91,-99.99,,,-99.99,,2013-01-17 12:02:00,
2013-01-17 05:12:00,10.0,9.0,-100.00,North,0,0.0,0.0,91,-99.99,,,-99.99,,2013-01-17 12:12:00,
2013-01-17 05:22:00,10.0,9.0,-100.00,North,0,0.0,0.0,91,-99.99,,,-99.99,,2013-01-17 12:22:00,
2013-01-17 05:32:00,9.0,7.0,-100.00,East,86,4.0,5.0,90,-99.99,,,-99.99,,2013-01-17 12:32:00,
2013-01-17 05:42:00,10.0,8.0,-100.00,East,82,3.0,4.0,92,-99.99,,,-99.99,,2013-01-17 12:42:00,
2013-01-17 05:52:00,10.0,8.0,-100.00,East,82,3.0,4.0,92,-99.99,,,-99.99,,2013-01-17 12:52:00,
2013-01-17 06:02:00,9.0,7.0,-100.00,East,86,3.0,3.0,91,-99.99,,,-99.99,,2013-01-17 13:02:00,
2013-01-17 06:12:00,8.0,6.0,-100.00,East,79,4.0,4.0,91,-99.99,,,-99.99,,2013-01-17 13:12:00,
2013-01-17 06:22:00,8.0,6.0,-100.00,East,79,4.0,4.0,91,-99.99,,,-99.99,,2013-01-17 13:22:00,
2013-01-17 06:33:00,9.0,7.0,-100.00,East,95,4.0,4.0,91,-99.99,,,-99.99,,2013-01-17 13:33:00,
2013-01-17 06:42:00,9.0,7.0,-100.00,ENE,74,5.0,5.0,91,-99.99,,,-99.99,,2013-01-17 13:42:00,
2013-01-17 06:52:00,9.0,7.0,-100.00,ENE,74,5.0,5.0,91,-99.99,,,-99.99,,2013-01-17 13:52:00,
2013-01-17 07:03:00,9.0,7.0,-100.00,ENE,72,1.0,2.0,91,-99.99,,,-99.99,,2013-01-17 14:03:00,
2013-01-17 07:12:00,10.0,9.0,-100.00,ENE,73,2.0,3.0,92,-99.99,,,-99.99,,2013-01-17 14:12:00,
2013-01-17 07:22:00,11.0,10.0,-100.00,East,101,2.0,2.0,93,-99.99,,,-99.99,,2013-01-17 14:22:00,
2013-01-17 07:32:00,11.0,10.0,-100.00,East,101,2.0,2.0,93,-99.99,,,-99.99,,2013-01-17 14:32:00,
2013-01-17 07:42:00,11.0,9.0,-100.00,East,81,1.0,2.0,91,-99.99,,,-99.99,,2013-01-17 14:42:00,
2013-01-17 07:52:00,11.0,9.0,-100.00,East,81,1.0,2.0,91,-99.99,,,-99.99,,2013-01-17 14:52:00,
2013-01-17 08:02:00,11.0,9.0,-100.00,ENE,65,2.0,2.0,91,-99.99,,,-99.99,,2013-01-17 15:02:00,
2013-01-17 08:12:00,11.0,9.0,-100.00,East,101,2.0,2.0,92,-99.99,,,-99.99,,2013-01-17 15:12:00,
2013-01-17 08:22:00,11.0,9.0,-100.00,East,101,2.0,2.0,92,-99.99,,,-99.99,,2013-01-17 15:22:00,
2013-01-17 08:33:00,10.0,8.0,-100.00,ENE,70,3.0,3.0,92,-99.99,,,-99.99,,2013-01-17 15:33:00,
2013-01-17 08:43:00,10.0,8.0,-100.00,ENE,73,2.0,3.0,91,-99.99,,,-99.99,,2013-01-17 15:43:00,
2013-01-17 08:52:00,10.0,8.0,-100.00,ENE,73,2.0,3.0,91,-99.99,,,-99.99,,2013-01-17 15:52:00,
2013-01-17 09:02:00,13.0,11.0,-100.00,East,84,3.0,4.0,93,-99.99,,,-99.99,,2013-01-17 16:02:00,
2013-01-17 09:12:00,14.0,13.0,-100.00,NE,51,2.0,2.0,94,-99.99,,,-99.99,,2013-01-17 16:12:00,
2013-01-17 09:22:00,14.0,13.0,-100.00,NE,51,2.0,2.0,94,-99.99,,,-99.99,,2013-01-17 16:22:00,
2013-01-17 09:33:00,18.0,17.0,-100.00,SSE,156,2.0,3.0,92,-99.99,,,-99.99,,2013-01-17 16:33:00,
2013-01-17 09:42:00,18.0,17.0,-100.00,SSE,156,2.0,3.0,92,-99.99,,,-99.99,,2013-01-17 16:42:00,
2013-01-17 09:52:00,17.0,13.0,-100.00,WSW,239,2.0,3.0,87,-99.99,,,-99.99,,2013-01-17 16:52:00,
2013-01-17 10:02:00,17.0,14.0,-100.00,SW,226,3.0,4.0,87,-99.99,,,-99.99,,2013-01-17 17:02:00,
2013-01-17 10:12:00,17.0,14.0,-100.00,SW,226,3.0,4.0,87,-99.99,,,-99.99,,2013-01-17 17:12:00,
2013-01-17 10:22:00,19.0,15.0,-100.00,SW,222,3.0,3.0,85,-99.99,,,-99.99,,2013-01-17 17:22:00,
2013-01-17 10:32:00,20.0,16.0,-100.00,SSW,208,2.0,2.0,83,-99.99,,,-99.99,,2013-01-17 17:32:00,
2013-01-17 10:42:00,22.0,18.0,-100.00,North,0,0.0,0.0,82,-99.99,,,-99.99,,2013-01-17 17:42:00,
2013-01-17 10:53:00,22.0,18.0,-100.00,North,0,0.0,0.0,84,-99.99,,,-99.99,,2013-01-17 17:53:00,
2013-01-17 11:03:00,24.0,20.0,-100.00,North,0,0.0,0.0,85,-99.99,,,-99.99,,2013-01-17 18:03:00,
2013-01-17 11:12:00,24.0,20.0,-100.00,North,0,0.0,0.0,85,-99.99,,,-99.99,,2013-01-17 18:12:00,
2013-01-17 11:22:00,24.0,20.0,-100.00,North,0,0.0,0.0,85,-99.99,,,-99.99,,2013-01-17 18:22:00,
2013-01-17 11:33:00,23.0,15.0,-100.00,WSW,245,4.0,5.0,69,-99.99,,,-99.99,,2013-01-17 18:33:00,
2013-01-17 11:43:00,23.0,15.0,-100.00,WSW,245,4.0,5.0,69,-99.99,,,-99.99,,2013-01-17 18:43:00,
2013-01-17 11:53:00,22.0,16.0,-100.00,ENE,78,2.0,2.0,76,-99.99,,,-99.99,,2013-01-17 18:53:00,
2013-01-17 12:02:00,25.0,18.0,-100.00,ENE,78,0.0,2.0,74,-99.99,,,-99.99,,2013-01-17 19:02:00,
2013-01-17 12:12:00,28.0,19.0,-100.00,North,0,0.0,1.0,67,-99.99,,,-99.99,,2013-01-17 19:12:00,
2013-01-17 12:22:00,28.0,19.0,-100.00,North,0,0.0,1.0,67,-99.99,,,-99.99,,2013-01-17 19:22:00,
2013-01-17 12:32:00,29.0,15.0,-100.00,WSW,256,2.0,3.0,56,-99.99,,,-99.99,,2013-01-17 19:32:00,
2013-01-17 12:42:00,26.0,14.0,-100.00,WSW,253,4.0,6.0,60,-99.99,,,-99.99,,2013-01-17 19:42:00,
2013-01-17 12:52:00,26.0,14.0,-100.00,WSW,253,4.0,6.0,60,-99.99,,,-99.99,,2013-01-17 19:52:00,
2013-01-17 13:02:00,26.0,14.0,-100.00,West,259,6.0,6.0,61,-99.99,,,-99.99,,2013-01-17 20:02:00,
2013-01-17 13:12:00,26.0,14.0,-100.00,West,259,6.0,6.0,61,-99.99,,,-99.99,,2013-01-17 20:12:00,
2013-01-17 13:22:00,27.0,14.0,-100.00,WSW,249,3.0,4.0,57,-99.99,,,-99.99,,2013-01-17 20:22:00,
2013-01-17 13:33:00,26.0,15.0,-100.00,WSW,241,5.0,5.0,62,-99.99,,,-99.99,,2013-01-17 20:33:00,
2013-01-17 13:43:00,26.0,15.0,-100.00,WSW,241,5.0,5.0,62,-99.99,,,-99.99,,2013-01-17 20:43:00,
2013-01-17 13:53:00,25.0,14.0,-100.00,WSW,256,6.0,6.0,62,-99.99,,,-99.99,,2013-01-17 20:53:00,
2013-01-17 14:02:00,26.0,15.0,-100.00,WSW,246,3.0,4.0,60,-99.99,,,-99.99,,2013-01-17 21:02:00,
2013-01-17 14:12:00,26.0,14.0,-100.00,East,85,3.0,4.0,59,-99.99,,,-99.99,,2013-01-17 21:12:00,
2013-01-17 14:22:00,26.0,14.0,-100.00,East,85,3.0,4.0,59,-99.99,,,-99.99,,2013-01-17 21:22:00,
2013-01-17 14:33:00,25.0,14.0,-100.00,ENE,76,4.0,4.0,61,-99.99,,,-99.99,,2013-01-17 21:33:00,
2013-01-17 14:42:00,23.0,14.0,-100.00,ENE,71,8.0,8.0,68,-99.99,,,-99.99,,2013-01-17 21:42:00,
2013-01-17 14:52:00,23.0,14.0,-100.00,ENE,71,8.0,8.0,68,-99.99,,,-99.99,,2013-01-17 21:52:00,
2013-01-17 15:02:00,22.0,14.0,-100.00,ENE,72,9.0,9.0,68,-99.99,,,-99.99,,2013-01-17 22:02:00,
2013-01-17 15:12:00,22.0,13.0,-100.00,ENE,75,8.0,8.0,68,-99.99,,,-99.99,,2013-01-17 22:12:00,
2013-01-17 15:22:00,22.0,13.0,-100.00,ENE,75,8.0,8.0,68,-99.99,,,-99.99,,2013-01-17 22:22:00,
2013-01-17 15:32:00,22.0,13.0,-100.00,ENE,76,7.0,7.0,66,-99.99,,,-99.99,,2013-01-17 22:32:00,
2013-01-17 15:42:00,22.0,13.0,-100.00,East,80,7.0,7.0,66,-99.99,,,-99.99,,2013-01-17 22:42:00,
2013-01-17 15:52:00,23.0,13.0,-100.00,East,85,7.0,7.0,66,-99.99,,,-99.99,,2013-01-17 22:52:00,
2013-01-17 16:02:00,23.0,13.0,-100.00,East,85,7.0,7.0,66,-99.99,,,-99.99,,2013-01-17 23:02:00,
2013-01-17 16:12:00,22.0,12.0,-100.00,ENE,73,8.0,8.0,65,-99.99,,,-99.99,,2013-01-17 23:12:00,
2013-01-17 16:22:00,22.0,12.0,-100.00,ENE,73,8.0,8.0,65,-99.99,,,-99.99,,2013-01-17 23:22:00,
2013-01-17 16:32:00,20.0,12.0,-100.00,ENE,78,7.0,7.0,70,-99.99,,,-99.99,,2013-01-17 23:32:00,
2013-01-17 16:42:00,21.0,12.0,-100.00,East,85,7.0,7.0,69,-99.99,,,-99.99,,2013-01-17 23:42:00,
2013-01-17 16:52:00,20.0,12.0,-100.00,ENE,65,5.0,5.0,70,-99.99,,,-99.99,,2013-01-17 23:52:00,
2013-01-17 17:02:00,20.0,12.0,-100.00,ESE,109,3.0,4.0,70,-99.99,,,-99.99,,2013-01-18 00:02:00,
2013-01-17 17:12:00,19.0,11.0,-100.00,ENE,71,4.0,5.0,71,-99.99,,,-99.99,,2013-01-18 00:12:00,
2013-01-17 17:22:00,19.0,11.0,-100.00,ENE,71,4.0,5.0,71,-99.99,,,-99.99,,2013-01-18 00:22:00,
2013-01-17 17:32:00,18.0,11.0,-100.00,East,86,3.0,3.0,72,-99.99,,,-99.99,,2013-01-18 00:32:00,
2013-01-17 17:42:00,19.0,12.0,-100.00,East,99,3.0,3.0,74,-99.99,,,-99.99,,2013-01-18 00:42:00,
2013-01-17 17:52:00,19.0,12.0,-100.00,East,99,3.0,3.0,74,-99.99,,,-99.99,,2013-01-18 00:52:00,
2013-01-17 18:02:00,17.0,10.0,-100.00,ENE,78,1.0,2.0,75,-99.99,,,-99.99,,2013-01-18 01:02:00,
2013-01-17 18:11:00,17.0,11.0,-100.00,East,93,2.0,3.0,76,-99.99,,,-99.99,,2013-01-18 01:11:00,
2013-01-17 18:22:00,18.0,12.0,-100.00,East,88,3.0,3.0,76,-99.99,,,-99.99,,2013-01-18 01:22:00,
2013-01-17 18:32:00,16.0,10.0,-100.00,East,95,2.0,4.0,76,-99.99,,,-99.99,,2013-01-18 01:32:00,
2013-01-17 18:42:00,16.0,10.0,-100.00,East,95,2.0,4.0,76,-99.99,,,-99.99,,2013-01-18 01:42:00,
2013-01-17 18:52:00,15.0,9.0,-100.00,ENE,64,2.0,2.0,79,-99.99,,,-99.99,,2013-01-18 01:52:00,
2013-01-17 19:02:00,14.0,9.0,-100.00,East,87,1.0,3.0,80,-99.99,,,-99.99,,2013-01-18 02:02:00,
2013-01-17 19:12:00,14.0,9.0,-100.00,East,87,1.0,3.0,80,-99.99,,,-99.99,,2013-01-18 02:12:00,
2013-01-17 19:22:00,16.0,10.0,-100.00,East,88,4.0,5.0,77,-99.99,,,-99.99,,2013-01-18 02:22:00,
2013-01-17 19:32:00,17.0,12.0,-100.00,ENE,72,2.0,3.0,79,-99.99,,,-99.99,,2013-01-18 02:32:00,
2013-01-17 19:42:00,17.0,12.0,-100.00,ENE,72,2.0,3.0,79,-99.99,,,-99.99,,2013-01-18 02:42:00,
2013-01-17 19:52:00,18.0,12.0,-100.00,ENE,78,4.0,4.0,75,-99.99,,,-99.99,,2013-01-18 02:52:00,
2013-01-17 20:02:00,17.0,11.0,-100.00,ENE,73,5.0,5.0,76,-99.99,,,-99.99,,2013-01-18 03:02:00,
2013-01-17 20:12:00,17.0,11.0,-100.00,ENE,73,5.0,5.0,76,-99.99,,,-99.99,,2013-01-18 03:12:00,
2013-01-17 20:22:00,18.0,12.0,-100.00,East,81,2.0,3.0,76,-99.99,,,-99.99,,2013-01-18 03:22:00,
2013-01-17 20:32:00,18.0,12.0,-100.00,East,81,2.0,3.0,76,-99.99,,,-99.99,,2013-01-18 03:32:00,
2013-01-17 20:42:00,18.0,11.0,-100.00,ENE,66,2.0,2.0,74,-99.99,,,-99.99,,2013-01-18 03:42:00,
2013-01-17 20:52:00,18.0,11.0,-100.00,ENE,66,4.0,5.0,75,-99.99,,,-99.99,,2013-01-18 03:52:00,
2013-01-17 21:02:00,18.0,12.0,-100.00,East,91,3.0,4.0,75,-99.99,,,-99.99,,2013-01-18 04:02:00,
2013-01-17 21:12:00,18.0,11.0,-100.00,East,89,2.0,3.0,74,-99.99,,,-99.99,,2013-01-18 04:12:00,
2013-01-17 21:22:00,18.0,11.0,-100.00,East,89,2.0,3.0,74,-99.99,,,-99.99,,2013-01-18 04:22:00,
2013-01-17 21:32:00,17.0,11.0,-100.00,WSW,257,1.0,2.0,75,-99.99,,,-99.99,,2013-01-18 04:32:00,
2013-01-17 21:42:00,17.0,10.0,-100.00,SW,228,2.0,2.0,74,-99.99,,,-99.99,,2013-01-18 04:42:00,
2013-01-17 21:52:00,17.0,10.0,-100.00,North,0,0.0,2.0,74,-99.99,,,-99.99,,2013-01-18 04:52:00,
2013-01-17 22:03:00,18.0,9.0,-100.00,North,0,0.0,1.0,67,-99.99,,,-99.99,,2013-01-18 05:03:00,
2013-01-17 22:12:00,18.0,9.0,-100.00,North,0,0.0,1.0,67,-99.99,,,-99.99,,2013-01-18 05:12:00,
2013-01-17 22:22:00,19.0,10.0,-100.00,ENE,73,0.0,1.0,66,-99.99,,,-99.99,,2013-01-18 05:22:00,
2013-01-17 22:32:00,19.0,11.0,-100.00,SE,140,0.0,1.0,71,-99.99,,,-99.99,,2013-01-18 05:32:00,
2013-01-17 22:42:00,19.0,11.0,-100.00,SE,140,0.0,1.0,71,-99.99,,,-99.99,,2013-01-18 05:42:00,
2013-01-17 22:52:00,16.0,8.0,-100.00,WSW,251,3.0,3.0,68,-99.99,,,-99.99,,2013-01-18 05:52:00,
2013-01-17 23:02:00,15.0,8.0,-100.00,WSW,245,2.0,3.0,72,-99.99,,,-99.99,,2013-01-18 06:02:00,
2013-01-17 23:12:00,16.0,7.0,-100.00,SW,233,2.0,2.0,67,-99.99,,,-99.99,,2013-01-18 06:12:00,
2013-01-17 23:22:00,16.0,7.0,-100.00,SW,233,2.0,2.0,67,-99.99,,,-99.99,,2013-01-18 06:22:00,
2013-01-17 23:32:00,15.0,8.0,-100.00,SW,233,1.0,1.0,71,-99.99,,,-99.99,,2013-01-18 06:32:00,
2013-01-17 23:42:00,14.0,6.0,-100.00,WSW,255,2.0,3.0,72,-99.99,,,-99.99,,2013-01-18 06:42:00,
2013-01-17 23:52:00,14.0,6.0,-100.00,WSW,255,2.0,3.0,72,-99.99,,,-99.99,,2013-01-18 06:52:00,